TimeEST,TemperatureF,Dew PointF,Humidity,Sea Level PressureIn,VisibilityMPH,Wind Direction,Wind SpeedMPH,Gust SpeedMPH,PrecipitationIn,Events,Conditions,WindDirDegrees,DateUTC
12:19 AM,28.4,23.0,80,29.86,1.8,WNW,13.8,19.6,0.00,Snow,Light Snow,300,2012-11-24 05:19:00
12:54 AM,27.0,24.1,89,29.90,1.5,NW,9.2,17.3,0.01,Snow,Light Snow,310,2012-11-24 05:54:00
1:09 AM,28.4,24.8,86,29.87,3.0,NW,8.1,17.3,0.00,Snow,Light Snow,310,2012-11-24 06:09:00
1:37 AM,26.6,24.8,93,29.88,2.0,NW,11.5,20.7,0.00,Snow,Light Snow,310,2012-11-24 06:37:00
1:44 AM,26.6,24.8,93,29.88,1.8,NW,9.2,20.7,0.00,Snow,Light Snow,320,2012-11-24 06:44:00
1:54 AM,27.0,24.1,89,29.91,1.8,NW,10.4,18.4,0.00,Snow,Light Snow,310,2012-11-24 06:54:00
2:02 AM,28.4,23.0,80,29.89,3.0,NW,9.2,-,0.00,Snow,Light Snow,320,2012-11-24 07:02:00
2:30 AM,26.6,23.0,86,29.90,1.8,NW,10.4,20.7,0.01,Snow,Light Snow,310,2012-11-24 07:30:00
2:40 AM,26.6,24.8,93,29.90,0.8,WNW,9.2,18.4,0.01,Snow,Light Snow,300,2012-11-24 07:40:00
2:54 AM,27.0,24.1,89,29.94,0.8,NW,8.1,-,0.02,Snow,Light Snow,310,2012-11-24 07:54:00
3:26 AM,26.6,24.8,93,29.92,1.0,WNW,6.9,-,0.02,Snow,Light Snow,300,2012-11-24 08:26:00
3:54 AM,27.0,23.0,85,29.95,1.5,NW,5.8,-,0.02,Snow,Light Snow,310,2012-11-24 08:54:00
4:08 AM,26.6,23.0,86,29.93,1.0,NW,8.1,-,0.01,Snow,Light Snow,310,2012-11-24 09:08:00
4:15 AM,26.6,23.0,86,29.93,1.2,NW,10.4,-,0.01,Snow,Light Snow,310,2012-11-24 09:15:00
4:30 AM,26.6,21.2,80,29.93,3.0,WNW,8.1,-,0.01,Snow,Light Snow,300,2012-11-24 09:30:00
4:50 AM,26.6,21.2,80,29.93,9.0,WNW,8.1,-,0.01,Snow,Light Snow,300,2012-11-24 09:50:00
4:54 AM,27.0,21.0,78,29.96,9.0,NW,8.1,-,0.01,Snow,Light Snow,310,2012-11-24 09:54:00
5:51 AM,26.6,21.2,80,29.94,2.5,NW,11.5,20.7,0.00,Snow,Light Snow,310,2012-11-24 10:51:00
5:54 AM,26.1,21.0,81,29.98,3.0,WNW,10.4,20.7,0.00,Snow,Light Snow,300,2012-11-24 10:54:00
6:01 AM,26.6,19.4,74,29.94,7.0,WNW,11.5,17.3,0.00,Snow,Light Snow,300,2012-11-24 11:01:00
6:13 AM,26.6,19.4,74,29.95,5.0,NW,11.5,19.6,0.00,Snow,Light Snow,310,2012-11-24 11:13:00
6:29 AM,26.6,19.4,74,29.95,8.0,NW,9.2,-,0.00,Snow,Light Snow,310,2012-11-24 11:29:00
6:54 AM,27.0,19.9,75,29.99,10.0,NW,10.4,-,0.00,,Overcast,310,2012-11-24 11:54:00
7:54 AM,27.0,18.0,69,30.01,10.0,WNW,8.1,19.6,N/A,,Overcast,300,2012-11-24 12:54:00
8:54 AM,27.0,17.1,66,30.03,10.0,NW,11.5,20.7,N/A,,Overcast,310,2012-11-24 13:54:00
9:15 AM,26.6,17.6,69,30.00,10.0,NW,11.5,21.9,N/A,,Overcast,320,2012-11-24 14:15:00
9:24 AM,26.6,17.6,69,30.00,10.0,WNW,11.5,20.7,N/A,,Overcast,300,2012-11-24 14:24:00
9:35 AM,26.6,17.6,69,30.00,9.0,WNW,13.8,20.7,0.00,Snow,Light Snow,300,2012-11-24 14:35:00
9:54 AM,27.0,17.1,66,30.04,8.0,WNW,10.4,18.4,0.00,Snow,Light Snow,300,2012-11-24 14:54:00
10:41 AM,26.6,17.6,69,30.03,9.0,WNW,9.2,18.4,0.00,Snow,Light Snow,300,2012-11-24 15:41:00
10:54 AM,27.0,17.1,66,30.06,4.0,NW,12.7,23.0,0.00,Snow,Light Snow,310,2012-11-24 15:54:00
11:54 AM,27.0,17.1,66,30.06,5.0,WNW,11.5,23.0,0.00,Snow,Light Snow,300,2012-11-24 16:54:00
12:49 PM,26.6,15.8,64,30.01,10.0,NW,12.7,21.9,0.00,,Overcast,310,2012-11-24 17:49:00
12:54 PM,27.0,16.0,63,30.04,10.0,WNW,11.5,21.9,0.00,,Overcast,290,2012-11-24 17:54:00
1:54 PM,28.0,16.0,61,30.04,10.0,WNW,11.5,18.4,N/A,,Overcast,300,2012-11-24 18:54:00
2:15 PM,28.4,15.8,59,30.01,10.0,West,10.4,18.4,N/A,,Overcast,280,2012-11-24 19:15:00
2:54 PM,28.0,15.1,58,30.04,10.0,WNW,10.4,18.4,N/A,,Overcast,290,2012-11-24 19:54:00
3:54 PM,28.0,16.0,61,30.05,10.0,NW,9.2,-,N/A,,Overcast,310,2012-11-24 20:54:00
4:54 PM,27.0,16.0,63,30.05,10.0,WNW,5.8,-,N/A,,Overcast,300,2012-11-24 21:54:00
5:54 PM,27.0,15.1,61,30.05,10.0,WNW,6.9,-,N/A,,Overcast,290,2012-11-24 22:54:00
6:54 PM,27.0,16.0,63,30.04,10.0,WNW,4.6,-,N/A,,Overcast,300,2012-11-24 23:54:00
7:54 PM,27.0,16.0,63,30.03,10.0,NW,6.9,-,N/A,,Overcast,310,2012-11-25 00:54:00
8:54 PM,27.0,17.1,66,30.01,10.0,West,3.5,-,N/A,,Overcast,260,2012-11-25 01:54:00
9:54 PM,27.0,18.0,69,30.00,10.0,Calm,Calm,-,N/A,,Overcast,0,2012-11-25 02:54:00
10:54 PM,27.0,18.0,69,29.98,10.0,Calm,Calm,-,N/A,,Overcast,0,2012-11-25 03:54:00
11:40 PM,26.6,17.6,69,29.94,10.0,Calm,Calm,-,N/A,,Overcast,0,2012-11-25 04:40:00
11:54 PM,27.0,18.0,69,29.97,10.0,Calm,Calm,-,N/A,,Overcast,0,2012-11-25 04:54:00